This demonstration page uses our WeatherBlox Daily Observations layout. Learn more.

Left ArrowRight Arrow

Hourly Observations for November 29, 2018

Temp ( °F °C ) Dew Point ( °F °C ) Humidity (%) Winds ( mph kmh ) Pressure ( in mb ) Visibility ( mi km ) Precip ( " mm )
12:57 am 00:57 Mostly Clear 37 2.8 35 1.7 93 93 W 6 9 29.75 1008 10 16 0.00 0.00
1:57 am 01:57 Clear 37 2.8 34 1.1 89 89 WNW 6 9 29.75 1008 10 16 0.00 0.00
2:57 am 02:57 Mostly Clear 36 2.2 34 1.1 93 93 NNW 6 9 29.76 1008 10 16 0.00 0.00
3:57 am 03:57 Clear 37 2.8 35 1.7 93 93 NW 7 11 29.74 1007 10 16 0.00 0.00
4:57 am 04:57 Cloudy 36 2.2 34 1.1 93 93 WNW 6 9 29.75 1008 10 16 0.00 0.00
5:57 am 05:57 Mostly Cloudy 37 2.8 34 1.1 89 89 NW 7 11 29.76 1008 10 16 0.00 0.00
6:57 am 06:57 Cloudy 36 2.2 34 1.1 93 93 NW 8 13 29.76 1008 10 16 0.00 0.00
7:57 am 07:57 Cloudy 37 2.8 35 1.7 93 93 NW 8 13 29.78 1008 10 16 0.00 0.00
8:57 am 08:57 Cloudy 38 3.3 35 1.7 89 89 NW 9 15 29.81 1009 10 16 0.00 0.00
9:57 am 09:57 Mostly Cloudy 40 4.4 36 2.2 86 86 NNW 6 9 29.82 1010 10 16 0.00 0.00
10:57 am 10:57 Mostly Cloudy 44 6.7 39 3.9 83 83 N 8 13 29.83 1010 10 16 0.00 0.00
11:57 am 11:57 Mostly Cloudy 45 7.2 40 4.4 83 83 NNW 7 11 29.82 1010 10 16 0.00 0.00
12:57 pm 12:57 Partly Cloudy 46 7.8 40 4.4 79 79 NW 7 11 29.81 1009 10 16 0.00 0.00
1:57 pm 13:57 Cloudy 48 8.9 41 5 77 77 NNW 8 13 29.80 1009 10 16 0.00 0.00
2:57 pm 14:57 Mostly Cloudy 49 9.4 41 5 74 74 N 13 20 29.81 1009 10 16 0.00 0.00
3:57 pm 15:57 Sunny 48 8.9 41 5 77 77 N 8 13 29.82 1010 10 16 0.00 0.00
4:57 pm 16:57 Mostly Sunny 43 6.1 39 3.9 86 86 NNE 8 13 29.84 1010 10 16 0.00 0.00
5:57 pm 17:57 Clear 39 3.9 38 3.3 96 96 NNE 6 9 29.87 1011 10 16 0.00 0.00
6:48 pm 18:48 Mostly Clear with Mist and Fog 37 3 37 3 100 100 Calm 29.91 1013 2 2 0.00 0.00
6:50 pm 18:50 Mostly Cloudy with Mist and Fog 37 3 37 3 100 100 Calm 29.94 1014 1 1 0.00 0.00
6:57 pm 18:57 Mostly Cloudy with Mist and Fog 37 2.8 37 2.8 100 100 Calm 29.88 1012 1 2 0.00 0.00
6:59 pm 18:59 Mostly Clear with Mist and Fog 37 3 36 2 93 93 Calm 29.94 1014 2 3 0.00 0.00
7:07 pm 19:07 Mostly Clear 37 3 36 2 93 93 Calm 29.94 1014 9 14 0.00 0.00
7:23 pm 19:23 Clear with Mist and Fog 37 3 36 2 93 93 Calm 29.94 1014 2 2 0.00 0.00
7:25 pm 19:25 Clear with Mist and Fog 36 2 36 2 100 100 Calm 29.94 1014 1 1 0.00 0.00
7:27 pm 19:27 Mostly Cloudy with Fog 36 2 36 2 100 100 Calm 29.94 1014 1 1 0.00 0.00
7:36 pm 19:36 Mostly Cloudy with Fog 34 1 34 1 100 100 NNE 3 6 29.94 1014 0 0 0.00 0.00
7:48 pm 19:48 Mostly Cloudy with Mist and Fog 34 1 34 1 100 100 Calm 29.94 1014 1 1 0.00 0.00
7:51 pm 19:51 Mostly Cloudy with Mist and Fog 34 1 34 1 100 100 Calm 29.94 1014 2 2 0.00 0.00
7:54 pm 19:54 Mostly Cloudy with Mist and Fog 34 1 34 1 100 100 Calm 29.94 1014 3 5 0.00 0.00
7:57 pm 19:57 Mostly Cloudy with Mist and Fog 34 1.1 33 0.6 97 97 Calm 29.89 1012 2 3 0.00 0.00
8:02 pm 20:02 Mostly Cloudy with Mist and Fog 34 1 34 1 100 100 Calm 29.94 1014 1 1 0.00 0.00
8:12 pm 20:12 Mostly Cloudy with Fog 34 1 32 0 93 93 Calm 29.94 1014 1 1 0.00 0.00
8:27 pm 20:27 Cloudy with Mist and Fog 32 0 32 0 100 100 Calm 29.97 1015 1 1 0.00 0.00
8:41 pm 20:41 Cloudy with Fog 32 0 32 0 100 100 Calm 29.97 1015 0 0 0.00 0.00
8:57 pm 20:57 Cloudy with Fog 32 0 32 0 100 100 Calm 29.90 1012 0 0 0.00 0.00
9:57 pm 21:57 Cloudy with Freezing Fog 31 -0.6 31 -0.6 100 100 WNW 5 7 29.91 1013 0 0 0.00 0.00
10:57 pm 22:57 Cloudy with Fog 32 0 31 -0.6 96 96 Calm 29.90 1013 0 0 0.00 0.00
11:05 pm 23:05 Cloudy with Fog 32 0 30 -1 93 93 Calm 29.97 1015 1 1 0.00 0.00
11:57 pm 23:57 Cloudy with Freezing Fog 30 -1.1 30 -1.1 100 100 NNW 5 7 29.90 1013 1 1 0.00 0.00

Powered by AerisWeather